Terug naar catalogus

DELTA 1 DEB

ActiefPO
NORAD 9567·DEBRIS·🇺🇸 United States

Gelanceerd Jan 22, 1975 vanaf Vandenberg Space Force Base

Loading…

Volgende Passages (komende 24 uur)

TLE

VersSource: Space-Track

Epoch: Sep 14, 2026, 09:16 UTC

1 09567U 75004FP  26257.38624140  .00000049  00000-0  36507-4 0  9991
2 09567  97.8926 310.6583 0124895 206.8104 152.6585 14.21072630620013

Volg DELTA 1 DEB in realtime met AllMySat

Download on the App Store